Location: Kawakawa
(35.3830°S, 174.0670°E)
Time: 17:42:32
(UTC+13:00)

A-11 Canister half - Pass Details

Date: 07 December 2019
Orbit: 1525 x 1684 km, 47.3° (Epoch: 27 January)

Event Time Altitude Azimuth Distance (km) Brightness Sun altitude
Rises 02:42:16 0° 236° (SW) 4,731 11.7 -28.5°
Reaches altitude 10° 02:45:18 10° 236° (SW) 3,761 11.1 -28.3°
Maximum altitude 02:54:53 86° 323° (NW) 1,606 8.9 -27.4°
Drops below altitude 10° 03:04:46 10° 50° (NE) 3,865 11.0 -26.5°
Sets 03:07:55 0° 50° (NE) 4,867 11.5 -26.2°
